If you wish to contribute or participate in the discussions about articles you are invited to join SKYbrary as a registered user

 Actions

Olympic Dam Airport

From SKYbrary Wiki

YOLD
Airport
ICAO: YOLD – IATA: OLP
Summary
Name Olympic Dam Airport
Region Asia and Pacific
Territory Australia AU.gif
Location Olympic Dam, South Australia
Serving Olympic Dam
Elevation 104.546 m
343 ft
343 ft104.546 m
Type small airport
Coordinates 30° 29' 6.00" S, 136° 52' 37.20" E
Runways
Designator Length Width Surface ROPS
6/24 1591 m5,219.816 ft
30 m98.425 ft
ASP /


METAR
Observation YOLD 142100Z AUTO 16003KT 9999 // NCD 05/01 Q1028
Station Olympic Dam Airport
Date/Time 14 May 2019 21:00:00
Wind direction 160°
Wind speed 03 kts
Lowest cloud amount no clouds detected
Temperature 5°C
Dew point 1°C
Humidity 75%
QNH 1028 hPa
Weather condition n/a